Location: Caltech
(34.1382°N, 118.1253°W)
Time: 10:32:27
(UTC-07:00)

BREEZE M DEB (TANK) - Visible Passes

Search period start: 17 August 2017 00:00
Search period end: 27 August 2017 00:00
Orbit: 323 x 13696 km, 49.5° (Epoch: 16 August)

Date Brightness Start Highest point End Pass type
(mag) Time Alt. Az. Time Alt. Az. Time Alt. Az.
18 Aug 5.9 21:08:33 10° WNW 21:15:48 20° NNW 21:19:16 10° NNE visible
20 Aug 5.9 20:05:43 10° W 20:19:41 31° NW 20:24:23 10° NNE visible
21 Aug 5.7 22:05:14 10° NW 22:06:57 11° NNW 22:08:17 10° N visible
23 Aug 5.8 21:04:54 10° WNW 21:10:29 17° NNW 21:13:28 10° NNE visible
25 Aug 5.9 20:02:42 10° W 20:14:08 26° NNW 20:18:29 10° NNE visible
26 Aug 5.6 22:00:03 10° NNW 22:01:45 12° N 22:02:29 11° N visible
